Hawthorne, CA

7:22 PM PDT on October 19, 2017 (GMT -0700)
Northrop-Hawthorne Municipal

Weather History for KHHR - December, 2012

Change the Weather History Date:

Thursday, December 20, 2012

  Actual Average Record
Temperature  
Mean Temperature 56 °F -  
Max Temperature 68 °F 64 °F 82 °F (1954)
Min Temperature 45 °F 46 °F 38 °F (1967)
Degree Days  
Heating Degree Days 8    
Growing Degree Days 6 (Base 50)    
Moisture  
Dew Point 20 °F    
Average Humidity 28    
Maximum Humidity 51    
Minimum Humidity 11    
Precipitation  
Precipitation 0.00 in - - ()
Sea Level Pressure  
Sea Level Pressure 30.16 in    
Wind  
Wind Speed 2 mph (NW)    
Max Wind Speed 10 mph    
Max Gust Speed -    
Visibility 10 miles    
Events      
Averages and records for this station are not official NWS values.
T = Trace of Precipitation, MM = Missing Value Source: NWS Daily Summary

Daily Weather History Graph

Daily Weather History Graph

Search for Another Location

Airport or City:

Trip Planner

Search our weather history database for the weather conditions in past years. The results will help you decide how hot, cold, wet, or windy it might be!

Date:

Astronomy

Dec. 20, 2012 Rise Set
Actual Time 6:54 AM PST 4:48 PM PST
Civil Twilight 6:26 AM PST 5:15 PM PST
Nautical Twilight 5:55 AM PST 5:47 PM PST
Astronomical Twilight 5:24 AM PST 6:17 PM PST
Moon 11:55 AM PST 12:00 AM PST
Length of Visible Light 10h 49m
Length of Day
9h 53m
First Quarter, 56% of the Moon is Illuminated
Dec 20
First Quarter
Dec 28
Full
Jan 4
Last Quarter
Jan 11
New
Jan 18
First Quarter

Hourly Weather History & Observations

Time (PST) Temp. Windchill Dew Point Humidity Pressure Visibility Wind Dir Wind Speed Gust Speed Precip Events Conditions
12:53 AM 48.0 °F - 19.0 °F 32% 30.25 in 10.0 mi Calm Calm - N/A   Clear
1:53 AM 46.0 °F 44.8 °F 19.9 °F 35% 30.23 in 10.0 mi Variable 3.5 mph - 0.00 in   Clear
2:53 AM 46.0 °F - 19.9 °F 35% 30.22 in 10.0 mi Calm Calm - N/A   Clear
3:53 AM 46.9 °F - 18.0 °F 32% 30.21 in 10.0 mi Variable 3.5 mph - N/A   Clear
4:53 AM 46.0 °F - 18.0 °F 33% 30.20 in 10.0 mi Calm Calm - N/A   Clear
5:53 AM 45.0 °F - 19.0 °F 36% 30.19 in 10.0 mi Calm Calm - N/A   Clear
6:53 AM 46.0 °F - 19.0 °F 34% 30.21 in 10.0 mi Calm Calm - N/A   Clear
7:53 AM 50.0 °F - 17.1 °F 27% 30.22 in 10.0 mi Variable 3.5 mph - N/A   Clear
8:53 AM 54.0 °F - 17.1 °F 23% 30.23 in 10.0 mi Variable 4.6 mph - N/A   Clear
9:53 AM 57.0 °F - 15.1 °F 19% 30.22 in 10.0 mi Variable 4.6 mph - N/A   Clear
10:53 AM 61.0 °F - 12.9 °F 15% 30.20 in 10.0 mi Variable 4.6 mph - N/A   Clear
11:53 AM 64.0 °F - 14.0 °F 14% 30.17 in 10.0 mi NE 3.5 mph - N/A   Clear
12:53 PM 66.0 °F - 12.0 °F 12% 30.13 in 10.0 mi East 3.5 mph - N/A   Clear
1:53 PM 68.0 °F - 12.9 °F 12% 30.10 in 10.0 mi Variable 3.5 mph - N/A   Clear
2:53 PM 68.0 °F - 12.0 °F 11% 30.09 in 10.0 mi Variable 3.5 mph - N/A   Clear
3:53 PM 64.0 °F - 28.0 °F 26% 30.09 in 10.0 mi West 10.4 mph - N/A   Clear
4:53 PM 59.0 °F - 37.9 °F 46% 30.09 in 10.0 mi WNW 5.8 mph - N/A   Clear
5:53 PM 57.9 °F - 39.9 °F 51% 30.09 in 10.0 mi West 3.5 mph - N/A   Clear
6:53 PM 57.0 °F - 24.1 °F 28% 30.09 in 10.0 mi NW 3.5 mph - N/A   Clear
7:53 PM 55.0 °F - 21.9 °F 28% 30.09 in 10.0 mi Calm Calm - N/A   Clear
8:53 PM 54.0 °F - 19.9 °F 26% 30.11 in 10.0 mi Calm Calm - N/A   Clear
9:53 PM 53.1 °F - 21.9 °F 30% 30.12 in 10.0 mi Calm Calm - N/A   Clear
10:53 PM 52.0 °F - 19.9 °F 28% 30.12 in 10.0 mi Calm Calm - N/A   Clear
11:53 PM 51.1 °F - 21.0 °F 31% 30.11 in 10.0 mi Calm Calm - N/A   Clear